Погода в Кентуне

Мьянма     21°17′30″N   99°36′29″E
темп.,
°C
ветер,
м/с
пор.,
м/с
влажн.,
%
обл.,
%
осадки,
мм/ч
давл.,
гПа
погр.,
м
13 мая, чт
чт1300:30+18юз11921 2.9 100911
03:30+17юз11920 0.4 100814
06:30+19зюз11870 0.4 100970
09:30+25з24570 0.7 10091279
12:30+27юз255028 2.0 10071595
15:30+28з244397 0.1 10041775
18:30+18вюв1191100 1.5 100716
21:30+19ююз118589 0.1 100816
14 мая, пт
пт1400:30+18зюз118913 0.1 100811
03:30+17зюз11903 0.0 100813
06:30+20зюз11805 0.0 100856
09:30+28з24405 0.0 10081879
12:30+29зюз3636100 0.0 10052819
15:30+28ююз364374 0.0 10031890
18:30+22юз1163100 0.0 100511
21:30+21зюз116419 0.0 100817
15 мая, сб
сб1500:30+19зюз11724 0.0 100812
03:30+19зюз117165 0.0 100811
06:30+21зюз116625 0.0 100970
09:30+28зюз254017 0.0 10092191
12:30+27юз154578 0.0 1007876
15:30+29зсз253791 0.0 10041729
18:30+22з116212 0.0 100611
21:30+20з116776 0.0 100912
16 мая, вс
вс1600:30+21з11696 0.0 100819
03:30+19зюз118030 0.0 100817
06:30+21з12702 0.0 100996
09:30+28з25425 0.0 10091833
12:30+32з352931 0.0 10063046
15:30+31з342635 0.0 10043050
18:30+24сз1145100 0.0 100611
21:30+22з115247 0.0 100811
17 мая, пн
пн1700:30+21юз0059100 0.0 100811
03:30+20ю0062100 0.0 100811
06:30+22зюз00565 0.0 101059
09:30+31з1332100 0.0 10092038
12:30+34з2324100 0.0 10063005
15:30+33з342560 0.0 10033008
18:30+25юз114347 0.0 100513
21:30+23ю1148100 0.0 100717